Regional Weather Roundup
Issued by NWS

Home | Current Version | Previous Version | Graphics & Text | Print | Product List | Glossary On
Versions: 1 2 3 4 5 6 7 8 9 10 11 12 13 14 15 16 17 18 19 20 21 22 23 24 25 26 27 28 29 30 31 32 33 34 35 36 37 38 39 40 41 42 43 44 45 46 47 48 49 50
000
ASUS43 KLSX 192159
RWRMO

WEATHER SUMMARY FOR MISSOURI
NATIONAL WEATHER SERVICE SPRINGFIELD MO
400 PM CST FRI DEC 19 2014

NOTE: "FAIR" INDICATES FEW OR NO CLOUDS BELOW 12,000 FEET WITH NO
       SIGNIFICANT WEATHER AND/OR OBSTRUCTIONS TO VISIBILITY.
       CURRENT SKY AND/OR WEATHER CONDITIONS ARE NOT AVAILABLE FOR
       CHILLICOTHE AND FARMINGTON.

MOZ001>031-035>038-043-044-053-054-192300-
...NORTHERN AND WESTERN MISSOURI...

CITY           SKY/WX    TMP DP  RH WIND       PRES   REMARKS
KANSAS CTY INT CLOUDY    32  30  92 SW3       30.20F FOG
KANSAS C DTWN  CLOUDY    35  31  85 CALM      30.21F
LEE`S SUMMIT   CLOUDY    34  30  85 CALM      30.21S
ST JOSEPH      CLOUDY    32  30  92 SW7       30.22S WCI  26
CHILLICOTHE      N/A     34  30  85 CALM      30.23F
KIRKSVILLE     CLOUDY    32  30  92 E7        30.23F FOG     WCI  26

$$
MOZ066>068-077>081-088>096-101>105-192300-
...SOUTHWEST MISSOURI...

CITY           SKY/WX    TMP DP  RH WIND       PRES   REMARKS
SPRINGFIELD    CLOUDY    40  36  86 E5        30.17S
JOPLIN         CLOUDY    39  38  96 CALM      30.19S FOG

$$
MOZ032>034-039>042-045>050-055>058-069>072-192300-
...CENTRAL MISSOURI...

CITY           SKY/WX    TMP DP  RH WIND       PRES   REMARKS
COLUMBIA       CLOUDY    36  32  85 E7        30.22S
JEFFERSON CITY CLOUDY    38  31  76 E5        30.24S
ROLLA          CLOUDY    35  31  85 SE7       30.19F WCI  29
SEDALIA        CLOUDY    37  34  89 SE5       30.22S
WARRENSBURG    CLOUDY    36  32  87 CALM      30.22R FOG
OSAGE BEACH    CLOUDY    37  32  81 E6        30.21S

$$
MOZ051-052-059>065-192300-
...EAST CENTRAL MISSOURI...

CITY           SKY/WX    TMP DP  RH WIND       PRES   REMARKS
ST LOUIS INTL  CLOUDY    38  27  64 CALM      30.27R
SPIRIT OF STL  CLOUDY    36  29  75 CALM      30.26S
ST CHARLES     CLOUDY    37  29  72 E3        30.28R

$$
MOZ072>076-082>087-097>100-106>115-192300-
...SOUTH CENTRAL AND SOUTHEAST MISSOURI...

CITY           SKY/WX    TMP DP  RH WIND       PRES   REMARKS
CAPE GIRARDEAU CLOUDY    39  31  72 NE5       30.26R
FARMINGTON     CLOUDY    36  28  75 N5        30.24F
POPLAR BLUFF   CLOUDY    39  29  67 NE6       30.26R
WEST PLAINS    CLOUDY    35  32  88 E5        30.20S

$$



USA.gov is the U.S. government's official web portal to all federal, state and local government web resources and services.